OPS 4682 DEB, 18427

Orbit data source: Space-Track

OPS 4682 DEB, 18427 is space debris in LEO originally from a launch on Sat, 03 Apr 1965 UTC launched from the Air Force Western Test Range (AFWTR). Debris objects in space refer to the collection of defunct objects orbiting the Earth. Examples of debris include non-operational satellites, rocket bodies, and fragments generated from explosions, collisions, or faulty payload assembly.

Loading next visibility...
Identifier
18427, 1965-027AB
Orbit
LEO
Country
Flag of USUS
Related business
Manufacturer
Unknown
Mission
Spacecraft
Bus & Motor
Unknown
Mass
Unknown
Launch date (UTC)
1965-04-03 (61 years ago)
Launch vehicle
Unknown
Launch site
Air Force Western Test Range (AFWTR)
Object type
Payload
Rocket body
Debris
Shape & HBR
Unknown shape, 0.1 m
Radar Cross Section
Medium (>0.1 m² and <1 m²)

Expand to show TLE details & history
Last TLE update: 5 hours ago

TLE from 5 hours ago
0 OPS 4682 DEB
1 18427U 65027AB  26178.30908432  .00001071  00000-0  32908-2 0  9998
2 18427  90.2847   4.8899 0018688 193.1596 347.0001 13.04994195959651
Epoch: 2026-06-27T07:25Z
TLE epoch observation values (Epoch: 2026-06-27T07:25:04.885Z)
Latitude
-0.22531°
Longitude
158.19334°
Altitude
1,231.624 km
Speed
7.245 km/s
True Right ascension
12h 19m 33s
True Declination
0° 13' 27"
Sunlit
Object was in daylight at epoch
Visualization orbit readout
Latitude
Unknown
Longitude
Unknown
Altitude
Unknown
Speed
Unknown
Apparent Right ascension
Unknown
Apparent Declination
Unknown
Sunlit
N/A
Visualization observer readout
Local Sidereal Time
00:13:12
Azimuth
Unknown
Elevation
Unknown
Doppler factor
Unknown
Orbital elements
Apogee altitude
1,253.937 km
Perigee altitude
1,225.465 km
Semi-major axis
7,617.838 km
Eccentricity
0.00187
Inclination
90.2847°
RAAN
4.8899°
Arg. of periapsis
193.1596°
True anomaly
346.95182°
Mean anomaly
347.0001°
Eccentric anomaly
346.97597°
Mean motion
3.26434 °/min
Orbital period
110.28 mins
BSTAR
0.0032908
Loading maneuver chart data...
Computing Atmospheric mass density...
Loading historical data...
Loading historical data...
Loading historical data...
Loading historical data...
Loading historical data...
Loading historical data...
Loading historical data...

Documentation

Showing up to 5 results
|